Wind_Speed
9 9 9 10 9 10 13 17 18 17 16 14 14 14 15 16 17 17 18 19 17 18 21 22 23 23 22 22 23 23 25 24 26 25 26 28 31 34 28 26 24 20 22
7 9 8 9 10 12 12 18 22 21 20 20 20 20 20 19 18 18 18 19 21 22 22 23 23 24 24 24 27 26 26 27 28 27 27 29 32 31 28 25 25 21 21
10 10 9 11 11 13 16 22 22 23 18 21 22 24 23 22 20 20 21 22 22 23 23 24 25 25 26 27 27 28 29 28 27 30 30 32 30 31 29 27 25 25 23
12 10 11 13 15 12 14 17 21 25 19 21 26 30 28 25 22 20 23 25 23 24 24 24 26 27 29 30 30 29 27 28 29 31 32 31 30 30 30 27 26 27 27
15 14 14 14 16 14 17 19 21 25 26 27 31 33 32 28 25 24 23 25 25 26 27 29 29 31 31 30 29 26 28 30 31 33 33 30 30 30 29 28 30 29 26
20 19 18 17 18 19 20 22 25 26 27 27 29 34 30 28 25 25 26 25 27 30 32 32 31 30 30 28 26 27 29 32 32 32 32 31 29 30 30 30 31 32 30
22 19 16 20 20 21 19 21 26 26 29 33 37 35 33 34 31 29 28 28 29 31 32 32 29 30 28 27 28 29 31 34 34 33 31 31 31 31 32 32 33 35 36
23 22 18 18 19 19 17 24 30 30 36 36 42 36 27 30 33 32 31 30 29 30 32 32 30 30 30 29 30 30 33 35 36 34 34 33 32 32 33 34 35 37 36
26 21 19 22 21 21 24 29 33 32 38 38 46 41 23 29 33 34 33 32 33 32 34 36 35 35 35 36 34 34 36 36 35 37 35 34 34 34 34 36 37 37 36
28 27 24 27 27 30 30 31 30 35 34 38 42 45 26 30 33 36 36 35 34 36 36 34 31 31 32 33 35 38 38 39 36 33 35 35 37 36 35 37 38 37 34
28 24 26 26 30 30 31 28 31 33 34 36 38 43 30 31 35 36 38 36 36 37 36 32 33 35 37 38 40 40 40 39 37 36 36 35 34 34 32 33 40 40 36
27 27 29 31 31 31 32 33 33 34 36 37 38 35 28 29 35 36 38 39 40 40 41 37 37 36 38 40 41 41 41 38 37 37 37 38 37 35 34 34 31 34 36
34 35 33 33 34 34 34 33 33 34 36 37 36 39 32 34 35 39 42 43 44 42 41 41 42 41 42 41 43 40 37 37 37 37 37 37 36 37 38 38 37 34 35
38 38 36 36 36 38 37 34 34 36 38 39 38 38 35 32 36 40 44 46 49 42 40 44 43 42 42 41 37 37 37 38 38 37 36 36 36 36 38 40 39 38 37
42 41 40 41 41 41 38 38 40 40 41 41 38 40 35 33 38 41 36 31 27 35 41 42 40 39 37 36 37 38 38 37 35 35 33 35 38 40 41 42 42 42 42
44 45 46 46 45 41 40 42 43 43 39 40 41 44 43 41 39 26 24 29 33 36 38 38 35 34 35 36 38 38 35 36 39 37 38 40 41 43 43 44 45 45 44
53 51 51 49 46 47 47 42 42 37 41 41 45 42 40 40 32 27 28 31 34 36 35 33 34 34 35 37 36 37 37 39 41 44 43 44 43 43 46 45 45 44 43
46 44 46 49 53 54 49 36 32 38 41 43 41 41 40 37 31 28 30 35 38 36 35 33 33 34 37 37 37 38 39 41 45 46 44 44 43 44 44 44 44 43 37
37 36 38 40 46 33 26 34 37 41 42 43 45 41 41 36 29 28 31 36 36 34 32 33 34 36 36 38 41 42 45 47 45 44 44 43 42 40 41 42 37 33 30
39 38 39 40 38 35 38 38 41 43 44 44 42 43 41 35 30 32 35 36 33 32 33 35 34 34 36 40 41 44 45 44 46 45 41 42 40 39 36 33 27 26 27
43 39 42 44 43 37 39 39 44 47 43 43 44 43 40 34 33 34 36 33 33 35 35 32 33 37 38 39 42 43 45 46 44 45 41 39 37 34 31 27 26 26 26
36 41 39 40 40 41 44 44 45 47 48 47 44 48 41 34 33 34 23 32 33 33 33 33 37 39 38 41 42 43 43 41 41 40 37 35 32 30 26 25 25 25 25
36 36 37 37 38 37 39 42 46 48 49 49 48 45 38 37 26 22 29 32 31 30 31 33 34 37 39 40 41 41 37 36 36 32 29 27 25 24 23 23 24 24 24
42 38 39 40 36 36 39 46 46 52 48 44 27 26 25 26 26 27 29 29 28 30 35 37 38 39 40 41 40 39 32 32 30 29 27 26 26 26 26 27 27 28 29
44 42 43 46 43 43 41 43 41 39 27 21 19 20 25 21 23 25 25 26 30 33 36 37 39 40 41 40 37 35 31 31 30 29 27 28 29 30 31 31 31 31 32
47 48 48 47 47 47 44 37 34 33 18 13 16 22 20 19 22 25 28 32 34 37 38 39 41 41 39 35 32 32 31 31 30 31 32 32 32 33 33 33 34 34 35
Wind_Direction
292 302 307 316 328 335 333 327 316 312 311 316 320 324 324 321 317 309 304 305 304 306 308 306 303 302 303 301 297 296 296 298 300 302 299 302 303 303 303 298 296 296 291
273 280 293 313 322 327 325 340 336 321 302 308 309 309 309 309 310 308 304 304 306 308 307 305 304 303 301 298 299 297 297 298 298 298 297 297 301 301 297 293 292 290 289
250 256 285 301 305 311 308 308 324 323 302 310 312 307 306 306 302 303 301 301 302 306 305 305 308 308 305 302 298 298 299 298 297 295 295 296 297 297 293 289 288 288 286
235 252 282 288 290 297 313 308 328 345 316 309 312 311 314 310 300 297 295 298 301 305 301 304 307 309 308 304 299 297 297 294 295 294 293 294 295 297 290 285 285 285 288
250 263 273 286 292 303 321 318 327 336 332 335 326 310 311 308 309 299 297 298 303 302 302 305 307 307 306 304 299 296 297 294 294 294 293 295 297 298 289 286 286 286 285
267 270 274 282 286 304 310 323 325 330 325 323 323 333 315 304 301 295 294 297 299 301 304 305 306 305 305 298 296 295 295 294 294 296 297 299 298 295 288 287 286 286 283
264 272 279 271 284 293 314 334 329 329 329 327 327 316 321 308 300 293 293 297 301 307 312 314 304 303 302 298 295 296 295 297 297 297 296 297 297 298 293 288 287 286 284
261 272 275 279 287 294 319 323 316 317 322 322 320 315 312 304 297 292 293 296 301 306 310 311 309 302 305 301 298 300 300 300 297 295 295 296 297 294 292 291 290 287 285
254 265 274 283 286 293 299 305 307 312 314 316 325 312 285 292 291 287 293 294 297 308 308 308 306 302 299 298 298 296 298 298 297 297 296 296 295 293 292 294 295 293 289
253 258 268 275 279 279 288 292 294 308 312 322 329 324 277 279 285 281 289 294 300 306 310 310 303 305 305 304 299 299 300 298 296 295 296 299 299 296 297 298 295 292 286
254 260 260 264 269 268 279 287 292 300 308 314 325 325 285 272 285 283 285 292 293 299 305 307 306 305 304 303 299 299 301 299 296 297 298 296 293 289 290 293 296 294 289
250 254 256 260 273 281 276 285 291 295 305 313 319 324 309 286 287 289 285 286 289 294 303 300 301 301 301 302 301 301 299 297 299 301 301 299 295 292 289 289 288 284 281
245 249 252 259 265 274 270 272 289 293 300 307 309 316 311 295 290 288 285 284 286 289 298 301 300 299 303 301 300 299 299 299 300 301 299 297 295 295 296 295 296 292 287
249 253 255 261 267 266 267 271 282 289 296 297 300 308 304 302 302 292 286 291 289 286 294 298 299 300 300 298 299 299 300 301 302 301 301 298 296 295 294 293 293 291 288
248 253 257 260 263 263 265 271 277 287 291 290 293 299 300 299 303 293 291 295 292 291 295 297 298 299 299 298 298 298 301 302 301 299 297 294 296 296 294 292 291 289 288
250 253 257 260 260 262 266 271 276 282 280 291 291 295 294 292 294 281 286 292 295 297 296 297 299 299 298 297 298 300 301 302 302 302 301 301 300 297 293 291 290 288 285
251 254 258 260 260 262 261 263 271 275 282 286 287 286 289 295 282 290 291 294 296 299 297 296 296 298 299 300 301 302 305 306 304 304 303 300 299 298 297 296 293 287 284
252 255 255 258 258 251 251 257 265 274 279 283 281 285 290 283 281 288 295 299 300 300 297 295 298 300 300 302 304 305 303 303 304 304 303 301 301 300 299 299 296 290 284
251 252 255 258 266 280 271 268 274 278 280 280 281 287 289 276 276 285 294 300 298 296 295 295 298 300 302 302 303 308 309 307 308 306 302 301 302 301 302 303 299 292 286
253 251 252 257 264 269 269 273 271 272 276 280 287 286 279 270 270 280 288 293 290 290 292 295 298 300 301 304 310 305 305 308 308 306 303 300 301 300 301 299 294 292 289
252 254 254 255 258 265 269 272 269 272 281 284 287 292 264 265 275 287 298 295 292 292 292 294 298 301 306 308 308 310 311 309 307 304 302 299 299 297 296 295 293 292 288
251 252 254 257 262 265 267 268 270 277 282 282 285 296 261 257 272 284 289 281 285 284 291 300 306 309 309 311 311 309 308 308 306 307 305 301 299 299 299 295 293 291 288
257 259 258 258 258 256 259 263 269 269 270 282 275 276 249 271 295 282 279 284 285 292 299 305 305 305 308 310 309 308 308 307 309 308 305 303 302 302 301 300 298 296 294
259 256 252 254 260 265 266 266 269 280 272 283 260 264 288 299 284 280 282 285 293 302 309 309 308 308 311 310 309 308 306 305 305 304 304 303 303 304 304 302 299 297 296
256 255 256 259 263 271 272 279 286 281 255 261 296 294 273 277 281 280 285 299 305 307 306 307 307 306 307 307 306 304 304 302 300 299 298 297 299 301 302 302 301 299 298
255 255 257 260 264 271 272 264 269 291 295 297 282 274 283 291 295 302 307 310 308 308 310 308 306 305 304 306 304 303 303 301 302 301 301 300 299 300 300 301 300 300 299
Height
5902 5902 5902 5902 5902 5901 5901 5900 5900 5899 5897 5897 5898 5898 5898 5898 5897 5896 5895 5894 5892 5892 5890 5888 5886 5884 5882 5881 5878 5876 5874 5871 5867 5865 5863 5860 5859 5856 5853 5850 5848 5848 5845
5900 5899 5899 5899 5899 5899 5898 5897 5896 5894 5894 5894 5895 5895 5894 5893 5892 5891 5890 5890 5889 5887 5885 5884 5881 5879 5877 5876 5873 5871 5868 5866 5863 5859 5857 5855 5852 5849 5847 5844 5842 5842 5840
5896 5896 5897 5897 5897 5897 5896 5895 5894 5890 5890 5891 5891 5891 5890 5889 5887 5887 5885 5884 5883 5882 5880 5878 5876 5873 5871 5868 5866 5864 5863 5859 5857 5854 5852 5848 5846 5842 5840 5838 5836 5834 5834
5893 5893 5894 5894 5894 5895 5894 5893 5892 5889 5888 5888 5887 5886 5886 5884 5883 5880 5879 5877 5876 5875 5874 5872 5869 5866 5864 5861 5859 5856 5855 5852 5849 5847 5845 5843 5838 5836 5832 5831 5829 5826 5826
5890 5890 5892 5892 5891 5892 5891 5890 5889 5888 5886 5886 5885 5882 5881 5879 5878 5876 5874 5872 5871 5870 5868 5866 5863 5860 5857 5854 5852 5849 5848 5846 5843 5840 5837 5834 5831 5829 5825 5824 5821 5820 5820
5886 5887 5889 5889 5888 5888 5887 5886 5884 5883 5882 5881 5878 5876 5874 5874 5873 5871 5869 5867 5866 5864 5861 5859 5856 5852 5849 5846 5845 5843 5841 5838 5835 5833 5830 5827 5823 5820 5818 5817 5814 5812 5812
5881 5883 5884 5884 5884 5884 5882 5881 5880 5878 5876 5874 5871 5870 5868 5867 5866 5865 5863 5861 5860 5857 5854 5852 5850 5845 5843 5840 5838 5836 5834 5832 5829 5825 5820 5817 5815 5813 5811 5809 5807 5804 5802
5875 5878 5879 5879 5879 5879 5877 5876 5875 5873 5871 5868 5865 5863 5861 5859 5859 5859 5858 5856 5854 5850 5847 5845 5844 5840 5838 5835 5832 5830 5827 5823 5820 5815 5811 5808 5806 5804 5802 5800 5798 5795 5792
5869 5872 5873 5873 5873 5872 5872 5870 5869 5867 5865 5861 5857 5852 5851 5850 5851 5851 5850 5850 5847 5844 5841 5838 5835 5833 5830 5828 5825 5821 5818 5815 5812 5806 5803 5801 5798 5795 5792 5790 5788 5784 5782
5862 5865 5867 5866 5867 5864 5864 5862 5861 5860 5858 5855 5848 5842 5841 5841 5842 5842 5842 5842 5842 5837 5834 5831 5827 5825 5821 5818 5815 5811 5808 5805 5801 5800 5795 5790 5788 5785 5783 5780 5776 5774 5772
5855 5857 5856 5856 5854 5855 5856 5856 5856 5854 5851 5847 5842 5837 5833 5833 5833 5832 5833 5833 5832 5830 5828 5824 5818 5816 5813 5809 5806 5802 5798 5795 5792 5789 5786 5783 5780 5778 5777 5772 5765 5763 5761
5846 5846 5846 5846 5848 5850 5848 5849 5849 5847 5844 5840 5835 5832 5830 5827 5826 5824 5825 5824 5822 5820 5817 5816 5813 5807 5804 5800 5796 5792 5788 5785 5782 5779 5776 5772 5767 5766 5766 5763 5761 5756 5753
5834 5835 5836 5838 5839 5841 5840 5840 5840 5839 5836 5834 5829 5826 5824 5821 5819 5818 5817 5814 5812 5810 5808 5805 5801 5797 5793 5790 5785 5782 5779 5776 5773 5769 5765 5760 5757 5754 5752 5749 5747 5745 5742
5824 5826 5827 5829 5831 5828 5829 5830 5830 5829 5827 5826 5822 5819 5817 5814 5811 5809 5807 5804 5802 5799 5797 5794 5790 5786 5783 5779 5775 5773 5770 5765 5762 5758 5755 5751 5748 5746 5742 5739 5736 5733 5730
5814 5816 5817 5819 5819 5818 5820 5821 5820 5819 5818 5815 5813 5810 5808 5807 5803 5797 5795 5793 5790 5788 5786 5783 5779 5775 5773 5770 5766 5763 5759 5756 5753 5750 5746 5743 5738 5734 5730 5727 5724 5721 5717
5805 5807 5807 5809 5808 5808 5810 5810 5810 5809 5807 5805 5803 5800 5798 5796 5792 5791 5788 5786 5783 5779 5776 5771 5768 5766 5763 5760 5757 5753 5749 5745 5741 5739 5733 5729 5725 5722 5719 5714 5710 5707 5704
5793 5795 5795 5798 5797 5796 5797 5798 5798 5798 5797 5794 5792 5790 5788 5784 5781 5780 5777 5776 5774 5770 5766 5763 5760 5756 5753 5750 5746 5741 5737 5734 5730 5726 5722 5717 5713 5708 5704 5700 5696 5692 5689
5780 5782 5784 5784 5781 5778 5782 5786 5787 5786 5786 5783 5781 5779 5777 5774 5771 5769 5767 5764 5762 5759 5756 5753 5750 5746 5742 5739 5736 5732 5728 5724 5718 5714 5709 5704 5700 5695 5691 5686 5681 5678 5676
5769 5772 5772 5771 5771 5770 5773 5775 5775 5776 5775 5772 5770 5769 5767 5765 5762 5759 5757 5756 5753 5750 5747 5745 5740 5736 5733 5730 5726 5721 5716 5711 5706 5702 5697 5692 5688 5683 5678 5673 5669 5666 5665
5759 5761 5761 5761 5761 5763 5765 5765 5765 5765 5763 5762 5760 5758 5756 5755 5750 5749 5748 5746 5742 5740 5737 5735 5731 5727 5724 5720 5715 5712 5705 5700 5694 5690 5686 5679 5675 5671 5668 5664 5660 5658 5656
5746 5750 5750 5752 5754 5754 5754 5755 5753 5752 5752 5752 5750 5749 5745 5742 5741 5742 5742 5739 5736 5732 5729 5725 5722 5718 5713 5709 5703 5698 5693 5688 5684 5678 5673 5669 5665 5661 5658 5654 5652 5650 5649
5735 5739 5741 5742 5742 5745 5745 5743 5742 5741 5741 5740 5737 5739 5736 5730 5731 5732 5731 5729 5727 5724 5719 5715 5712 5707 5703 5697 5692 5687 5682 5678 5671 5666 5662 5658 5654 5651 5648 5646 5644 5643 5641
5726 5729 5731 5732 5731 5732 5732 5732 5732 5727 5727 5724 5724 5723 5726 5726 5724 5721 5720 5719 5717 5713 5710 5706 5702 5697 5693 5689 5683 5678 5672 5665 5661 5657 5654 5650 5647 5644 5642 5639 5637 5635 5633
5714 5717 5719 5719 5721 5722 5721 5719 5717 5717 5713 5715 5715 5719 5717 5716 5715 5714 5712 5710 5706 5702 5697 5695 5691 5686 5681 5677 5673 5667 5662 5656 5652 5649 5646 5642 5639 5636 5634 5632 5629 5626 5624
5703 5707 5708 5709 5711 5712 5713 5710 5710 5711 5704 5706 5707 5710 5710 5707 5707 5706 5704 5700 5696 5692 5689 5685 5681 5677 5671 5666 5661 5655 5652 5648 5644 5641 5637 5634 5631 5628 5625 5622 5619 5617 5614
5690 5694 5697 5701 5702 5703 5703 5704 5704 5702 5702 5699 5700 5703 5700 5698 5698 5695 5691 5688 5685 5681 5677 5674 5670 5666 5661 5656 5651 5646 5642 5638 5634 5630 5627 5624 5621 5618 5615 5612 5609 5606 5603